Kezdőlap
METAR-TAF:

METAR-TAF

Repülőterek :

Olivia Regional Airport

Olivia, Minnesota, Amerikai Egyesült Államok

földrajzi szélesség: 44-46-43N, földrajzi hosszúság: 095-01-58W, magasság: 328 m

Jelenlegi meteorológiai megfigyelések

A jelentés 39 perccel ezelõtt készült, 17:55 UTC
Szélcsend
Hőmérséklet 30°C
Páratartalom 18%
Légköri nyomás 1011 hPa
Látótávolság: 16.1 km
Derült ég

METAR: KOVL 181755Z AUTO 00000KT 10SM CLR 30/03 A2986 RMK AO2

Idő: 13:34 (18:34 UTC)


TAF: hiányzik

Meteorológiai megfigyelések és előrejelzések több, mint 4000 repülőtéren (METAR és TAF jelentéseket).

A térképen piros és sárga pontok jelzik az elérhető meteorológiai állomásokat.

Mozgassa az egeret a pont fölött, hogy megjelenjen az állomás neve.

Azután kattintson az időjárási megfigyelések és előrejelzések megtekintéséhez.

A térkép megváltoztatása: kattintson a fekete keresztel jelölt zöld gombra ráközelítéshez, a vonallal jelölt zöld gombra távolításhoz, vagy a zöld nyilakra a szomszédos térképek eléréséhez.


METAR-TAF: